Location: Strawberry
(45.6646°N, 111.9596°W)
Time: 16:56:22
(UTC+00:00)

SR - Pass Details

Date: 08 October 2022
Orbit: 577 x 874 km, 66.7° (Epoch: 05 December)

Event Time Altitude Azimuth Distance (km) Brightness Sun altitude
Rises 02:24:33 0° 188° (S) 3,420 ? -16.2°
Reaches altitude 10° 02:27:07 10° 182° (S) 2,505 ? -16.6°
Maximum altitude 02:32:35 42° 113° (ESE) 1,234 ? -17.6°
Enters shadow 02:37:02 15° 49° (NE) 2,172 ? -18.4°
